Estación de Codegua

Ultimos registro cada 15 minutos 93
Estación Fecha / Hora Temperatura Humedad Lluvia Velocidad Dirección Radiación Presion
93 Codegua 02-05-2026 23:00 8,2 89,8 0 0 211 0,6 958,6
92 Codegua 02-05-2026 22:45 7,8 90,1 0 0 211 0,6 958,6
91 Codegua 02-05-2026 22:30 7,8 87,5 0 0 211 0,6 958,4
90 Codegua 02-05-2026 22:15 8,9 86,3 0 0 213 0,6 958,3
89 Codegua 02-05-2026 22:00 8,6 85,6 0 0 216 0,6 958,1
88 Codegua 02-05-2026 21:45 8,7 84,3 0 0 216 0,6 958,3
87 Codegua 02-05-2026 21:30 9,4 84 0 0 216 0,6 958,3
86 Codegua 02-05-2026 21:15 9 83,7 0 0 216 0,6 958,1
85 Codegua 02-05-2026 21:00 9,4 83 0 0 216 0,6 958,5
84 Codegua 02-05-2026 20:45 10,2 81,6 0 0 216 0,6 958,5
83 Codegua 02-05-2026 20:30 11,5 75,7 0 0 216 0,6 958,6
82 Codegua 02-05-2026 20:15 11,9 74,2 0 0 216 0,6 958,4
81 Codegua 02-05-2026 20:00 11,5 75,1 0 0 216 0,6 958,2
80 Codegua 02-05-2026 19:45 11 76 0 0 216 0,6 958,2
79 Codegua 02-05-2026 19:30 11,6 74,6 0 0 216 0,6 957,9
78 Codegua 02-05-2026 19:15 12,1 73,1 0 0 216 0,6 957,7
77 Codegua 02-05-2026 19:00 13,3 69,7 0 0 216 0,6 957,2
76 Codegua 02-05-2026 18:45 14,2 66,1 0 0 216 0,6 956,7
75 Codegua 02-05-2026 18:30 16,6 57,3 0 0 233 0,6 956,6
74 Codegua 02-05-2026 18:15 16,6 59,6 0 0 254 0,6 956,6
73 Codegua 02-05-2026 18:00 17,8 55,3 0 0 254 1,9 956,4
72 Codegua 02-05-2026 17:45 19,3 49,2 0 0 254 6,9 956,3
71 Codegua 02-05-2026 17:30 20,7 44,6 0 0 254 11,9 956,1
70 Codegua 02-05-2026 17:15 21,7 41,8 0 0 254 11,9 956
69 Codegua 02-05-2026 17:00 23 37,7 0 0 254 14,4 955,9
68 Codegua 02-05-2026 16:45 25,3 32,7 0 0 254 25,6 956
67 Codegua 02-05-2026 16:30 27,8 28,2 0 0 254 134,4 956
66 Codegua 02-05-2026 16:15 27,7 29,5 0 0 251 271,9 955,9
65 Codegua 02-05-2026 16:00 28,3 28,7 0 0 250 310,6 955,8
64 Codegua 02-05-2026 15:45 27,9 30,2 0 0 254 348,1 955,8
63 Codegua 02-05-2026 15:30 28,4 30 0 0 265 385,6 955,9
62 Codegua 02-05-2026 15:15 28,1 29,8 0 0 270 419,4 955,7
61 Codegua 02-05-2026 15:00 27,6 29,1 0 0 275 450,6 955,7
60 Codegua 02-05-2026 14:45 28,2 30 0 0 271 483,1 955,6
59 Codegua 02-05-2026 14:30 26,1 33,4 0 0 227 506,9 955,7
58 Codegua 02-05-2026 14:15 27,3 31,8 0 0 184 533,1 955,9
57 Codegua 02-05-2026 14:00 25,7 37 0 0 190 549,4 956
56 Codegua 02-05-2026 13:45 26,2 36,4 0 0 250 568,1 955,9
55 Codegua 02-05-2026 13:30 25,9 38,2 0 0 254 583,1 956
54 Codegua 02-05-2026 13:15 24,7 42,2 0 0 167 230,6 956,1
53 Codegua 02-05-2026 13:00 23,6 47,7 0 0 164 600,6 956,4
52 Codegua 02-05-2026 12:45 23 46,1 0 0 145 603,1 956,5
51 Codegua 02-05-2026 12:30 21,9 50 0 0 277 419,4 956,8
50 Codegua 02-05-2026 12:15 21,5 50 0 0 274 598,1 957
49 Codegua 02-05-2026 12:00 20,7 53,7 0 0 264 588,1 957,2
48 Codegua 02-05-2026 11:45 19 56,1 0 0 272 574,4 957,6
47 Codegua 02-05-2026 11:30 18,4 58,8 0 0 13 559,4 957,5
46 Codegua 02-05-2026 11:15 17,3 65 0 0 20 539,4 957,7
45 Codegua 02-05-2026 11:00 16,4 69,7 0 0 316 518,1 957,8
44 Codegua 02-05-2026 10:45 15,6 76,1 0 0 307 489,4 957,9
43 Codegua 02-05-2026 10:30 14,4 80,5 0 0 309 456,9 958,2
42 Codegua 02-05-2026 10:15 12,9 84,3 0 0 321 286,9 958,3
41 Codegua 02-05-2026 10:00 12 91,9 0 0 344 406,9 958,4
40 Codegua 02-05-2026 09:45 10,8 98,7 0 0 357 364,4 958,4
39 Codegua 02-05-2026 09:30 9,9 99,8 0 0 105 324,4 958,4
38 Codegua 02-05-2026 09:15 8,8 100 0 0 108 284,4 958,6
37 Codegua 02-05-2026 09:00 8,3 100 0 0 108 243,1 958,7
36 Codegua 02-05-2026 08:45 7,7 100 0 0 108 35,6 958,6
35 Codegua 02-05-2026 08:30 6,2 100 0 0 108 31,9 958,7
34 Codegua 02-05-2026 08:15 4,3 100 0 0 108 35,6 958,8
33 Codegua 02-05-2026 08:00 2,8 100 0 0 108 28,1 958,8
32 Codegua 02-05-2026 07:45 2,5 100 0 0 108 6,9 958,8
31 Codegua 02-05-2026 07:30 2,3 100 0 0 108 3,1 958,9
30 Codegua 02-05-2026 07:15 2,5 100 0 0 108 0,6 958,7
29 Codegua 02-05-2026 07:00 3,3 100 0 0 108 0,6 959
28 Codegua 02-05-2026 06:45 3,8 100 0 0 108 0,6 958,8
27 Codegua 02-05-2026 06:30 4 100 0 0 108 0,6 958,6
26 Codegua 02-05-2026 06:15 4,4 100 0 0 108 0,6 958,6
25 Codegua 02-05-2026 06:00 3,7 100 0 0 108 0,6 958,6
24 Codegua 02-05-2026 05:45 3,8 100 0 0 108 0,6 958,6
23 Codegua 02-05-2026 05:30 3,9 100 0 0 108 0,6 958,8
22 Codegua 02-05-2026 05:15 4,3 100 0 0 108 0,6 958,9
21 Codegua 02-05-2026 05:00 4,5 100 0 0 108 0,6 958,9
20 Codegua 02-05-2026 04:45 4,8 100 0 0 108 0,6 959
19 Codegua 02-05-2026 04:30 4,7 100 0 0 108 0,6 959,1
18 Codegua 02-05-2026 04:15 4,2 100 0 0 108 0,6 959,1
17 Codegua 02-05-2026 04:00 4,1 100 0 0 108 0,6 959,3
16 Codegua 02-05-2026 03:45 3,4 100 0 0 108 0,6 959,4
15 Codegua 02-05-2026 03:30 3,6 100 0 0 108 0,6 959,8
14 Codegua 02-05-2026 03:15 4 99,9 0 0 108 0,6 960
13 Codegua 02-05-2026 03:00 4,6 100 0 0 108 0,6 960,1
12 Codegua 02-05-2026 02:45 4,6 100 0 0 108 0,6 960,4
11 Codegua 02-05-2026 02:30 3,9 99,7 0 0 108 0,6 960,6
10 Codegua 02-05-2026 02:15 4,4 99,6 0 0 108 0,6 961
9 Codegua 02-05-2026 02:00 4,8 99,5 0 0 108 0,6 961
8 Codegua 02-05-2026 01:45 5,2 99,4 0 0 108 0,6 961,3
7 Codegua 02-05-2026 01:30 5,4 99,4 0 0 108 0,6 961,3
6 Codegua 02-05-2026 01:15 5 99,2 0 0 108 0,6 961,5
5 Codegua 02-05-2026 01:00 5,4 99,3 0 0 108 0,6 961,6
4 Codegua 02-05-2026 00:45 6,1 99 0 0 108 0,6 961,7
3 Codegua 02-05-2026 00:30 6,7 99,4 0 0 108 0,6 961,8
2 Codegua 02-05-2026 00:15 5,4 99,2 0 0 108 0,6 961,8
1 Codegua 02-05-2026 00:00 5,9 99,2 0 0 108 0,6 962